Terminal Aerodrome Forecast
Issued by NWS Duluth, MN

Home | Current Version | Previous Version | Text Only | Print | Product List | Glossary On
Versions: 1 2 3 4 5 6 7 8 9 10 11 12 13 14 15 16 17 18 19
000
FTUS43 KDLH 290500
TAFINL
TAF
KINL 290520Z 2906/3006 00000KT P6SM SCT100
     FM291500 32009KT P6SM SCT050
     FM291900 32012G18KT P6SM VCSH BKN050
     FM300200 32005KT P6SM SCT050=

USA.gov is the U.S. government's official web portal to all federal, state and local government web resources and services.